sat.trackr.live / text

‹ back to catalog

STARLINK-37192

NORAD 68342 · 2026-059X

PAYLOAD ACTIVE UNKNOWN

§ Identity

Operator
Country
US
Launch date
2026-03-22
Launch site
AFETR
Launch vehicle
Mass (kg)
RCS (m²)

Purposes: comms

External: N2YO · Heavens-Above · Gunter

§ Orbital elements

Epoch: 2026-05-24T20:21:28.943424Z

Period
92.94 min
Inclination
53.1588°
Eccentricity
0.0000794
Mean motion
15.49330303 rev/d
Perigee alt
418.1 km
Apogee alt
419.2 km
Semi-major
6,796.8 km
B*
1.0627e-3
RAAN
351.1322°
Arg perigee
76.8627°
Mean anomaly
283.2471°
Rev number
988

§ Raw data

STARLINK-371921 68342U 26059X   26144.84825166  .00059147  00000+0  10627-2 0  99952 68342  53.1588 351.1322 0000794  76.8627 283.2471 15.49330303  9881

JSON: /api/v1/satellites/68342 · /tle

For live sub-satellite position, see the globe view (requires WebGL).

§ Visibility from observer

Set your observer location to see the next 7 days of passes ≥ 10°. The values pass through the URL so the page stays shareable.

No JS? Fill the form by hand. The geolocation button needs JavaScript.